Language: 


Des rapports , des résumés tant et plus, au choix de chacun....


Données Historiques de Météogheer
Journalier Rapport pour Février 26, 2018 Unitée:  Métrique    Impériale   Les deux
Suivant Jour »
Journalier Hebdomadaire Mensuel Annuel Sur mesure
  Max: Min: Moyenne:
Température: 1.7 °C -4.5 °C -2.2 °C
Point de rosée: -7.0 °C -12.0 °C -10 °C
Humidité: 79% 42% 58%
Vent: 36.4km/h 6.1km/h 16.5km/h
Rafales: 36.4km/h - -
Vent- - NE
Pression: 1029.0 hPa 1024.9 hPa -
Pluie: 0.0 mm    
Historical Graphs
 
 
Données tabulaires pour Février 26, 2018
Heure Température Point de rosée Pression Vent Vent Rafales Humidité Pluie Taux (Horaire) Conditions
00:00 -2.3 °C -12.0 °C 1027.0 hPa ENE 13.7 km/h 13.7 km/h 51% 0.0 mm
00:05 -2.3 °C -12.0 °C 1027.0 hPa ENE 13.7 km/h 13.7 km/h 51% 0.0 mm
00:10 -2.3 °C -12.0 °C 1027.0 hPa ENE 13.7 km/h 13.7 km/h 51% 0.0 mm
00:15 -2.3 °C -11.0 °C 1027.0 hPa ENE 16.3 km/h 16.3 km/h 52% 0.0 mm
00:20 -2.4 °C -11.0 °C 1027.0 hPa ENE 16.3 km/h 16.3 km/h 52% 0.0 mm
00:25 -2.4 °C -11.0 °C 1027.0 hPa ENE 16.3 km/h 16.3 km/h 52% 0.0 mm
00:30 -2.5 °C -12.0 °C 1027.0 hPa ENE 16.3 km/h 16.3 km/h 52% 0.0 mm
00:35 -2.5 °C -12.0 °C 1027.0 hPa NE 17.7 km/h 17.7 km/h 52% 0.0 mm
00:40 -2.5 °C -11.0 °C 1027.0 hPa NE 17.7 km/h 17.7 km/h 53% 0.0 mm
00:45 -2.5 °C -11.0 °C 1027.0 hPa NE 17.7 km/h 17.7 km/h 53% 0.0 mm
00:50 -2.6 °C -11.0 °C 1027.0 hPa NE 17.7 km/h 17.7 km/h 53% 0.0 mm
00:56 -2.7 °C -11.0 °C 1027.0 hPa NE 17.7 km/h 17.7 km/h 54% 0.0 mm
01:01 -2.8 °C -11.0 °C 1027.0 hPa NE 17.7 km/h 17.7 km/h 54% 0.0 mm
01:06 -2.8 °C -11.0 °C 1027.0 hPa ENE 13.7 km/h 13.7 km/h 55% 0.0 mm
01:11 -2.8 °C -11.0 °C 1027.0 hPa ENE 13.7 km/h 13.7 km/h 55% 0.0 mm
01:16 -2.8 °C -11.0 °C 1027.0 hPa North 20.1 km/h 20.1 km/h 55% 0.0 mm
01:21 -2.8 °C -11.0 °C 1027.0 hPa North 20.1 km/h 20.1 km/h 55% 0.0 mm
01:26 -2.9 °C -11.0 °C 1027.0 hPa NNE 11.9 km/h 20.1 km/h 56% 0.0 mm
01:31 -3.0 °C -11.0 °C 1027.0 hPa NNE 11.9 km/h 20.1 km/h 57% 0.0 mm
01:36 -2.9 °C -11.0 °C 1027.0 hPa NNE 11.9 km/h 11.9 km/h 57% 0.0 mm
01:41 -3.0 °C -11.0 °C 1027.0 hPa NNE 11.9 km/h 11.9 km/h 57% 0.0 mm
01:46 -3.1 °C -11.0 °C 1027.0 hPa NNE 11.9 km/h 11.9 km/h 57% 0.0 mm
01:51 -3.1 °C -11.0 °C 1027.0 hPa ENE 12.2 km/h 13.0 km/h 57% 0.0 mm
01:56 -3.1 °C -11.0 °C 1027.0 hPa ENE 12.2 km/h 13.0 km/h 57% 0.0 mm
02:01 -3.1 °C -11.0 °C 1027.0 hPa ENE 12.2 km/h 12.2 km/h 57% 0.0 mm
02:06 -3.1 °C -11.0 °C 1027.0 hPa ENE 12.2 km/h 12.2 km/h 58% 0.0 mm
02:11 -3.2 °C -11.0 °C 1027.0 hPa ENE 12.2 km/h 12.2 km/h 58% 0.0 mm
02:16 -3.1 °C -11.0 °C 1027.0 hPa ENE 12.2 km/h 12.2 km/h 58% 0.0 mm
02:21 -3.1 °C -11.0 °C 1027.0 hPa ENE 12.2 km/h 12.2 km/h 58% 0.0 mm
02:26 -3.2 °C -11.0 °C 1027.0 hPa ENE 12.2 km/h 12.2 km/h 58% 0.0 mm
02:31 -3.2 °C -11.0 °C 1027.0 hPa NE 16.9 km/h 16.9 km/h 58% 0.0 mm
02:36 -3.3 °C -11.0 °C 1027.0 hPa NE 12.6 km/h 16.9 km/h 58% 0.0 mm
02:41 -3.3 °C -11.0 °C 1027.0 hPa NE 12.6 km/h 16.9 km/h 59% 0.0 mm
02:46 -3.3 °C -11.0 °C 1027.0 hPa NE 13.0 km/h 16.9 km/h 59% 0.0 mm
02:51 -3.3 °C -11.0 °C 1027.0 hPa ENE 25.3 km/h 25.3 km/h 59% 0.0 mm
02:56 -3.3 °C -11.0 °C 1027.0 hPa ENE 25.3 km/h 25.3 km/h 59% 0.0 mm
03:01 -3.3 °C -11.0 °C 1026.0 hPa ENE 25.3 km/h 25.3 km/h 59% 0.0 mm
03:07 -3.4 °C -10.0 °C 1026.0 hPa NE 12.2 km/h 25.3 km/h 60% 0.0 mm
03:12 -3.5 °C -11.0 °C 1026.0 hPa ENE 12.2 km/h 25.3 km/h 60% 0.0 mm
03:17 -3.5 °C -11.0 °C 1027.0 hPa ENE 12.2 km/h 13.7 km/h 61% 0.0 mm
03:22 -3.6 °C -10.0 °C 1027.0 hPa ENE 12.2 km/h 12.2 km/h 62% 0.0 mm
03:27 -3.6 °C -10.0 °C 1027.0 hPa ENE 17.7 km/h 17.7 km/h 62% 0.0 mm
03:32 -3.6 °C -10.0 °C 1027.0 hPa NE 13.0 km/h 17.7 km/h 62% 0.0 mm
03:37 -3.5 °C -11.0 °C 1027.0 hPa NE 13.0 km/h 17.7 km/h 61% 0.0 mm
03:42 -3.5 °C -11.0 °C 1027.0 hPa NE 13.0 km/h 13.0 km/h 61% 0.0 mm
03:47 -3.6 °C -11.0 °C 1027.0 hPa NE 16.3 km/h 16.3 km/h 61% 0.0 mm
03:52 -3.6 °C -10.0 °C 1027.0 hPa NNE 15.4 km/h 16.3 km/h 62% 0.0 mm
03:57 -3.7 °C -10.0 °C 1027.0 hPa NNE 15.4 km/h 16.3 km/h 62% 0.0 mm
04:02 -3.7 °C -10.0 °C 1027.0 hPa NNE 15.4 km/h 15.4 km/h 62% 0.0 mm
04:07 -3.7 °C -10.0 °C 1027.0 hPa ENE 12.2 km/h 16.9 km/h 62% 0.0 mm
04:12 -3.7 °C -10.0 °C 1027.0 hPa NE 20.6 km/h 20.6 km/h 63% 0.0 mm
04:17 -3.7 °C -10.0 °C 1027.0 hPa NE 13.7 km/h 20.6 km/h 63% 0.0 mm
04:22 -3.8 °C -10.0 °C 1027.0 hPa NE 15.8 km/h 20.6 km/h 63% 0.0 mm
04:27 -3.8 °C -10.0 °C 1027.0 hPa NE 15.8 km/h 15.8 km/h 64% 0.0 mm
04:32 -3.9 °C -10.0 °C 1026.0 hPa NE 15.8 km/h 15.8 km/h 64% 0.0 mm
04:37 -3.9 °C -10.0 °C 1026.0 hPa NE 15.8 km/h 15.8 km/h 65% 0.0 mm
04:42 -3.8 °C -10.0 °C 1026.0 hPa NE 15.8 km/h 15.8 km/h 65% 0.0 mm
04:47 -3.9 °C -10.0 °C 1027.0 hPa NE 15.8 km/h 15.8 km/h 65% 0.0 mm
04:52 -3.9 °C -10.0 °C 1027.0 hPa NE 15.8 km/h 15.8 km/h 66% 0.0 mm
04:57 -3.9 °C -10.0 °C 1027.0 hPa ENE 13.0 km/h 13.0 km/h 66% 0.0 mm
05:02 -4.0 °C -10.0 °C 1027.0 hPa ENE 11.1 km/h 17.2 km/h 67% 0.0 mm
05:07 -4.0 °C -10.0 °C 1027.0 hPa ENE 16.9 km/h 17.2 km/h 67% 0.0 mm
05:12 -4.0 °C -10.0 °C 1027.0 hPa NE 25.6 km/h 25.6 km/h 68% 0.0 mm
05:17 -4.0 °C -10.0 °C 1027.0 hPa ENE 14.0 km/h 25.6 km/h 68% 0.0 mm
05:22 -4.1 °C -10.0 °C 1027.0 hPa NNE 12.6 km/h 25.6 km/h 69% 0.0 mm
05:27 -4.1 °C -10.0 °C 1027.0 hPa NE 16.3 km/h 16.3 km/h 69% 0.0 mm
05:32 -4.2 °C -10.0 °C 1027.0 hPa NNE 14.0 km/h 17.2 km/h 69% 0.0 mm
05:37 -4.2 °C -9.0 °C 1027.0 hPa ENE 12.6 km/h 17.2 km/h 70% 0.0 mm
05:43 -4.2 °C -9.0 °C 1027.0 hPa ENE 12.6 km/h 14.0 km/h 70% 0.0 mm
05:48 -4.2 °C -9.0 °C 1027.0 hPa ENE 12.6 km/h 12.6 km/h 71% 0.0 mm
05:53 -4.2 °C -9.0 °C 1027.0 hPa ENE 12.6 km/h 12.6 km/h 71% 0.0 mm
05:58 -4.2 °C -9.0 °C 1027.0 hPa NNE 12.2 km/h 13.7 km/h 71% 0.0 mm
06:03 -4.2 °C -9.0 °C 1027.0 hPa NE 15.8 km/h 15.8 km/h 71% 0.0 mm
06:08 -4.2 °C -9.0 °C 1027.0 hPa NE 15.8 km/h 15.8 km/h 71% 0.0 mm
06:13 -4.2 °C -9.0 °C 1027.0 hPa NE 15.8 km/h 15.8 km/h 72% 0.0 mm
06:18 -4.3 °C -9.0 °C 1027.0 hPa NE 15.8 km/h 15.8 km/h 72% 0.0 mm
06:23 -4.3 °C -9.0 °C 1027.0 hPa NE 10.8 km/h 15.8 km/h 72% 0.0 mm
06:28 -4.3 °C -9.0 °C 1027.0 hPa NE 14.0 km/h 14.8 km/h 72% 0.0 mm
06:33 -4.3 °C -9.0 °C 1027.0 hPa NE 14.0 km/h 14.0 km/h 72% 0.0 mm
06:38 -4.3 °C -9.0 °C 1027.0 hPa NE 16.9 km/h 17.7 km/h 73% 0.0 mm
06:43 -4.2 °C -9.0 °C 1027.0 hPa NE 19.8 km/h 19.8 km/h 73% 0.0 mm
06:48 -4.2 °C -9.0 °C 1027.0 hPa ENE 13.7 km/h 19.8 km/h 73% 0.0 mm
06:53 -4.3 °C -9.0 °C 1027.0 hPa ENE 13.7 km/h 19.8 km/h 73% 0.0 mm
06:58 -4.3 °C -9.0 °C 1027.0 hPa ENE 23.8 km/h 23.8 km/h 74% 0.0 mm
07:03 -4.2 °C -9.0 °C 1027.0 hPa ENE 23.8 km/h 23.8 km/h 74% 0.0 mm
07:08 -4.2 °C -9.0 °C 1027.0 hPa ENE 23.8 km/h 23.8 km/h 74% 0.0 mm
07:13 -4.2 °C -8.0 °C 1027.0 hPa ENE 23.8 km/h 23.8 km/h 75% 0.0 mm
07:19 -4.2 °C -8.0 °C 1027.0 hPa ENE 23.8 km/h 23.8 km/h 75% 0.0 mm
07:24 -4.3 °C -9.0 °C 1027.0 hPa NNE 16.6 km/h 16.6 km/h 75% 0.0 mm
07:29 -4.4 °C -9.0 °C 1027.0 hPa NNE 16.6 km/h 16.6 km/h 75% 0.0 mm
07:34 -4.4 °C -9.0 °C 1027.0 hPa NNE 16.6 km/h 16.6 km/h 76% 0.0 mm
07:39 -4.5 °C -9.0 °C 1027.0 hPa NNE 16.6 km/h 16.6 km/h 76% 0.0 mm
07:44 -4.5 °C -9.0 °C 1028.0 hPa NE 15.8 km/h 16.6 km/h 77% 0.0 mm
07:49 -4.5 °C -9.0 °C 1028.0 hPa NE 15.8 km/h 15.8 km/h 77% 0.0 mm
07:54 -4.5 °C -9.0 °C 1028.0 hPa NNE 16.3 km/h 17.7 km/h 78% 0.0 mm
07:59 -4.5 °C -9.0 °C 1028.0 hPa NNE 16.6 km/h 17.7 km/h 78% 0.0 mm
08:04 -4.5 °C -8.0 °C 1028.0 hPa NE 14.0 km/h 20.1 km/h 79% 0.0 mm
08:09 -4.4 °C -8.0 °C 1028.0 hPa NE 18.3 km/h 20.1 km/h 79% 0.0 mm
08:14 -4.3 °C -8.0 °C 1029.0 hPa NE 13.0 km/h 18.3 km/h 79% 0.0 mm
08:19 -4.2 °C -8.0 °C 1029.0 hPa NE 9.0 km/h 18.3 km/h 79% 0.0 mm
08:24 -4.1 °C -8.0 °C 1029.0 hPa ENE 14.0 km/h 19.8 km/h 79% 0.0 mm
08:29 -4.1 °C -8.0 °C 1029.0 hPa ENE 19.5 km/h 21.2 km/h 79% 0.0 mm
08:35 -3.9 °C -8.0 °C 1029.0 hPa NE 19.8 km/h 21.2 km/h 78% 0.0 mm
08:40 -3.8 °C -7.0 °C 1029.0 hPa ENE 16.9 km/h 21.2 km/h 78% 0.0 mm
08:45 -3.7 °C -7.0 °C 1029.0 hPa NE 15.8 km/h 24.8 km/h 77% 0.0 mm
08:50 -3.7 °C -8.0 °C 1029.0 hPa ENE 18.0 km/h 24.8 km/h 76% 0.0 mm
08:55 -3.5 °C -8.0 °C 1029.0 hPa NNE 16.6 km/h 22.4 km/h 76% 0.0 mm
09:00 -3.4 °C -7.0 °C 1029.0 hPa ENE 21.6 km/h 24.5 km/h 75% 0.0 mm
09:05 -3.3 °C -7.0 °C 1029.0 hPa NE 16.9 km/h 24.5 km/h 75% 0.0 mm
09:10 -3.2 °C -8.0 °C 1029.0 hPa ENE 17.2 km/h 24.5 km/h 74% 0.0 mm
09:15 -3.0 °C -7.0 °C 1029.0 hPa East 14.0 km/h 22.7 km/h 74% 0.0 mm
09:20 -3.0 °C -8.0 °C 1029.0 hPa East 13.0 km/h 20.9 km/h 73% 0.0 mm
09:25 -2.8 °C -8.0 °C 1029.0 hPa NE 16.6 km/h 20.6 km/h 72% 0.0 mm
09:30 -2.8 °C -8.0 °C 1029.0 hPa NNE 16.6 km/h 21.2 km/h 72% 0.0 mm
09:36 -2.6 °C -7.0 °C 1029.0 hPa ENE 17.7 km/h 21.2 km/h 72% 0.0 mm
09:41 -2.6 °C -8.0 °C 1029.0 hPa NE 13.7 km/h 24.5 km/h 71% 0.0 mm
09:46 -2.4 °C -7.0 °C 1029.0 hPa ENE 17.7 km/h 24.5 km/h 71% 0.0 mm
09:51 -2.3 °C -8.0 °C 1029.0 hPa NE 21.2 km/h 27.7 km/h 69% 0.0 mm
09:56 -2.3 °C -8.0 °C 1029.0 hPa NE 20.1 km/h 27.7 km/h 69% 0.0 mm
10:01 -2.1 °C -8.0 °C 1029.0 hPa ENE 16.6 km/h 22.4 km/h 68% 0.0 mm
10:06 -1.9 °C -8.0 °C 1029.0 hPa NE 11.9 km/h 27.4 km/h 66% 0.0 mm
10:11 -1.9 °C -8.0 °C 1029.0 hPa East 20.6 km/h 27.4 km/h 66% 0.0 mm
10:16 -1.7 °C -8.0 °C 1029.0 hPa ENE 16.6 km/h 23.3 km/h 66% 0.0 mm
10:21 -1.5 °C -8.0 °C 1029.0 hPa East 15.8 km/h 23.3 km/h 65% 0.0 mm
10:26 -1.3 °C -8.0 °C 1029.0 hPa NE 9.7 km/h 20.9 km/h 64% 0.0 mm
10:31 -1.3 °C -8.0 °C 1029.0 hPa ENE 14.0 km/h 20.9 km/h 64% 0.0 mm
10:36 -1.4 °C -8.0 °C 1029.0 hPa NE 20.9 km/h 22.4 km/h 62% 0.0 mm
10:41 -1.5 °C -9.0 °C 1029.0 hPa NE 12.6 km/h 22.4 km/h 62% 0.0 mm
10:46 -1.5 °C -9.0 °C 1029.0 hPa ENE 17.2 km/h 19.8 km/h 62% 0.0 mm
10:51 -1.8 °C -9.0 °C 1029.0 hPa ENE 13.0 km/h 23.8 km/h 62% 0.0 mm
10:56 -1.8 °C -9.0 °C 1029.0 hPa NE 9.7 km/h 23.8 km/h 62% 0.0 mm
11:01 -1.9 °C -9.0 °C 1029.0 hPa NE 14.3 km/h 19.8 km/h 63% 0.0 mm
11:06 -2.0 °C -9.0 °C 1029.0 hPa ENE 16.9 km/h 19.8 km/h 63% 0.0 mm
11:11 -2.0 °C -9.0 °C 1029.0 hPa ENE 16.6 km/h 20.9 km/h 63% 0.0 mm
11:16 -1.9 °C -9.0 °C 1029.0 hPa NE 16.9 km/h 21.6 km/h 63% 0.0 mm
11:21 -1.8 °C -9.0 °C 1029.0 hPa NE 12.6 km/h 23.3 km/h 62% 0.0 mm
11:26 -1.6 °C -9.0 °C 1029.0 hPa ENE 11.9 km/h 23.3 km/h 61% 0.0 mm
11:31 -1.0 °C -8.0 °C 1029.0 hPa NE 12.6 km/h 22.4 km/h 63% 0.0 mm
11:36 -1.2 °C -9.0 °C 1029.0 hPa ENE 16.3 km/h 23.8 km/h 59% 0.0 mm
11:41 -1.4 °C -9.0 °C 1029.0 hPa NE 15.4 km/h 23.8 km/h 57% 0.0 mm
11:46 -1.4 °C -9.0 °C 1029.0 hPa NNE 17.2 km/h 19.8 km/h 57% 0.0 mm
11:51 -1.4 °C -9.0 °C 1029.0 hPa NNE 9.7 km/h 19.8 km/h 58% 0.0 mm
11:56 -1.4 °C -9.0 °C 1029.0 hPa NE 14.3 km/h 24.5 km/h 58% 0.0 mm
12:02 -1.4 °C -9.0 °C 1029.0 hPa NE 15.8 km/h 24.5 km/h 57% 0.0 mm
12:07 -1.0 °C -9.0 °C 1029.0 hPa NE 13.0 km/h 16.6 km/h 58% 0.0 mm
12:12 -1.0 °C -9.0 °C 1029.0 hPa NNE 12.2 km/h 20.9 km/h 56% 0.0 mm
12:17 -1.3 °C -10.0 °C 1028.0 hPa East 16.6 km/h 20.9 km/h 55% 0.0 mm
12:22 -1.0 °C -10.0 °C 1028.0 hPa NNE 15.8 km/h 18.3 km/h 55% 0.0 mm
12:27 -1.0 °C -10.0 °C 1028.0 hPa NE 17.2 km/h 20.9 km/h 54% 0.0 mm
12:32 -1.0 °C -10.0 °C 1028.0 hPa ENE 12.2 km/h 23.8 km/h 54% 0.0 mm
12:37 -0.5 °C -10.0 °C 1028.0 hPa NNE 28.0 km/h 31.4 km/h 53% 0.0 mm
12:42 -0.2 °C -9.0 °C 1028.0 hPa NNE 21.2 km/h 32.3 km/h 52% 0.0 mm
12:47 -0.3 °C -10.0 °C 1027.0 hPa NE 17.7 km/h 33.8 km/h 50% 0.0 mm
12:52 -0.6 °C -11.0 °C 1027.0 hPa ENE 16.6 km/h 33.8 km/h 49% 0.0 mm
12:57 0.1 °C -8.0 °C 1027.0 hPa NE 15.4 km/h 25.9 km/h 52% 0.0 mm
13:02 0.6 °C -8.0 °C 1028.0 hPa NE 25.6 km/h 32.0 km/h 51% 0.0 mm
13:07 0.2 °C -9.0 °C 1028.0 hPa ENE 20.9 km/h 32.0 km/h 50% 0.0 mm
13:12 -0.4 °C -10.0 °C 1028.0 hPa ENE 18.0 km/h 31.7 km/h 50% 0.0 mm
13:17 -0.3 °C -10.0 °C 1027.0 hPa NE 16.3 km/h 27.7 km/h 51% 0.0 mm
13:22 -0.3 °C -10.0 °C 1027.0 hPa ENE 20.1 km/h 27.4 km/h 50% 0.0 mm
13:27 0.3 °C -9.0 °C 1027.0 hPa East 27.0 km/h 30.6 km/h 49% 0.0 mm
13:32 0.7 °C -9.0 °C 1027.0 hPa NE 18.0 km/h 30.6 km/h 49% 0.0 mm
13:37 1.2 °C -8.0 °C 1027.0 hPa NE 15.4 km/h 27.0 km/h 50% 0.0 mm
13:42 1.5 °C -8.0 °C 1027.0 hPa NE 17.2 km/h 27.7 km/h 48% 0.0 mm
13:47 1.7 °C -8.0 °C 1027.0 hPa ENE 20.1 km/h 27.7 km/h 48% 0.0 mm
13:52 1.4 °C -9.0 °C 1027.0 hPa NE 21.2 km/h 27.7 km/h 47% 0.0 mm
13:57 1.0 °C -9.0 °C 1027.0 hPa NE 24.8 km/h 31.4 km/h 45% 0.0 mm
14:02 1.0 °C -9.0 °C 1027.0 hPa NE 16.9 km/h 31.7 km/h 45% 0.0 mm
14:07 0.4 °C -10.0 °C 1027.0 hPa ENE 20.6 km/h 31.7 km/h 44% 0.0 mm
14:12 0.3 °C -10.0 °C 1027.0 hPa ENE 16.6 km/h 24.5 km/h 44% 0.0 mm
14:17 0.4 °C -10.0 °C 1027.0 hPa NE 16.9 km/h 25.9 km/h 44% 0.0 mm
14:22 1.0 °C -9.0 °C 1027.0 hPa East 17.7 km/h 25.9 km/h 45% 0.0 mm
14:28 1.3 °C -9.0 °C 1027.0 hPa NE 20.6 km/h 25.9 km/h 45% 0.0 mm
14:33 0.8 °C -10.0 °C 1027.0 hPa NNE 27.4 km/h 27.4 km/h 43% 0.0 mm
14:38 1.2 °C -9.0 °C 1027.0 hPa NE 16.3 km/h 32.0 km/h 44% 0.0 mm
14:43 1.4 °C -10.0 °C 1027.0 hPa NE 20.6 km/h 32.0 km/h 43% 0.0 mm
14:48 1.6 °C -10.0 °C 1026.0 hPa ENE 16.9 km/h 23.8 km/h 43% 0.0 mm
14:53 1.4 °C -10.0 °C 1026.0 hPa NE 27.7 km/h 36.0 km/h 42% 0.0 mm
14:58 1.3 °C -10.0 °C 1026.0 hPa NE 28.0 km/h 36.0 km/h 43% 0.0 mm
15:03 0.7 °C -11.0 °C 1027.0 hPa NE 21.2 km/h 28.5 km/h 42% 0.0 mm
15:08 0.4 °C -11.0 °C 1027.0 hPa ENE 28.0 km/h 33.1 km/h 43% 0.0 mm
15:13 0.7 °C -10.0 °C 1027.0 hPa NE 24.5 km/h 33.1 km/h 43% 0.0 mm
15:18 0.9 °C -10.0 °C 1027.0 hPa NNE 23.8 km/h 28.0 km/h 44% 0.0 mm
15:23 0.8 °C -10.0 °C 1027.0 hPa NE 19.5 km/h 27.4 km/h 43% 0.0 mm
15:28 0.6 °C -10.0 °C 1027.0 hPa ENE 23.8 km/h 23.8 km/h 43% 0.0 mm
15:33 0.8 °C -10.0 °C 1027.0 hPa ESE 17.7 km/h 23.8 km/h 42% 0.0 mm
15:38 1.1 °C -10.0 °C 1027.0 hPa East 12.6 km/h 26.7 km/h 42% 0.0 mm
15:43 1.2 °C -10.0 °C 1027.0 hPa NE 27.4 km/h 27.4 km/h 43% 0.0 mm
15:48 0.6 °C -10.0 °C 1027.0 hPa NNE 20.6 km/h 27.4 km/h 43% 0.0 mm
15:53 0.1 °C -11.0 °C 1027.0 hPa ENE 18.3 km/h 32.0 km/h 43% 0.0 mm
15:58 0.1 °C -11.0 °C 1027.0 hPa NE 24.5 km/h 32.0 km/h 43% 0.0 mm
16:03 0.1 °C -11.0 °C 1027.0 hPa NE 23.0 km/h 28.5 km/h 43% 0.0 mm
16:08 0.0 °C -12.0 °C 1027.0 hPa ENE 15.1 km/h 28.5 km/h 43% 0.0 mm
16:13 -0.1 °C -12.0 °C 1027.0 hPa NE 36.4 km/h 36.4 km/h 43% 0.0 mm
16:18 -0.2 °C -12.0 °C 1026.0 hPa NE 22.4 km/h 36.4 km/h 43% 0.0 mm
16:23 -0.2 °C -12.0 °C 1026.0 hPa NE 17.2 km/h 36.4 km/h 43% 0.0 mm
16:28 -0.1 °C -12.0 °C 1026.0 hPa NNE 17.2 km/h 27.4 km/h 43% 0.0 mm
16:33 0.0 °C -11.0 °C 1026.0 hPa ENE 20.6 km/h 27.4 km/h 44% 0.0 mm
16:38 -0.3 °C -12.0 °C 1026.0 hPa NE 20.1 km/h 31.4 km/h 44% 0.0 mm
16:44 -0.4 °C -12.0 °C 1026.0 hPa NNE 21.6 km/h 31.4 km/h 44% 0.0 mm
16:49 -0.6 °C -12.0 °C 1026.0 hPa NE 19.1 km/h 28.0 km/h 44% 0.0 mm
16:54 -0.7 °C -12.0 °C 1026.0 hPa NE 26.7 km/h 27.4 km/h 45% 0.0 mm
16:59 -0.6 °C -11.0 °C 1026.0 hPa NNE 16.9 km/h 27.4 km/h 46% 0.0 mm
17:04 -0.5 °C -10.0 °C 1026.0 hPa NE 17.2 km/h 30.2 km/h 50% 0.0 mm
17:09 -0.8 °C -10.0 °C 1026.0 hPa NE 20.6 km/h 30.2 km/h 51% 0.0 mm
17:14 -0.8 °C -10.0 °C 1026.0 hPa NE 20.9 km/h 28.0 km/h 51% 0.0 mm
17:19 -0.9 °C -10.0 °C 1026.0 hPa NE 16.3 km/h 24.5 km/h 52% 0.0 mm
17:24 -1.0 °C -10.0 °C 1026.0 hPa NE 19.8 km/h 24.5 km/h 52% 0.0 mm
17:29 -1.0 °C -10.0 °C 1026.0 hPa NE 17.7 km/h 19.8 km/h 52% 0.0 mm
17:34 -1.0 °C -10.0 °C 1026.0 hPa NNE 14.8 km/h 19.8 km/h 52% 0.0 mm
17:39 -1.0 °C -10.0 °C 1026.0 hPa ENE 22.4 km/h 22.4 km/h 52% 0.0 mm
17:44 -1.0 °C -11.0 °C 1026.0 hPa NE 22.7 km/h 28.8 km/h 50% 0.0 mm
17:49 -0.9 °C -11.0 °C 1026.0 hPa NNE 18.3 km/h 28.8 km/h 50% 0.0 mm
17:54 -1.0 °C -11.0 °C 1026.0 hPa NE 16.6 km/h 28.5 km/h 50% 0.0 mm
17:59 -1.1 °C -11.0 °C 1026.0 hPa ENE 16.9 km/h 28.5 km/h 50% 0.0 mm
18:04 -1.3 °C -11.0 °C 1026.0 hPa North 14.0 km/h 24.5 km/h 51% 0.0 mm
18:09 -1.4 °C -11.0 °C 1026.0 hPa NE 23.8 km/h 25.9 km/h 50% 0.0 mm
18:14 -1.4 °C -11.0 °C 1026.0 hPa ENE 16.3 km/h 25.9 km/h 51% 0.0 mm
18:19 -1.4 °C -11.0 °C 1026.0 hPa NE 15.1 km/h 25.9 km/h 51% 0.0 mm
18:24 -1.4 °C -11.0 °C 1026.0 hPa NNE 11.9 km/h 23.8 km/h 51% 0.0 mm
18:29 -1.4 °C -11.0 °C 1026.0 hPa NE 16.9 km/h 21.9 km/h 51% 0.0 mm
18:34 -1.4 °C -11.0 °C 1026.0 hPa NNE 17.2 km/h 20.6 km/h 51% 0.0 mm
18:39 -1.5 °C -11.0 °C 1026.0 hPa NE 20.6 km/h 20.6 km/h 51% 0.0 mm
18:44 -1.5 °C -11.0 °C 1026.0 hPa NE 23.8 km/h 23.8 km/h 51% 0.0 mm
18:49 -1.5 °C -11.0 °C 1026.0 hPa NNE 19.5 km/h 26.7 km/h 51% 0.0 mm
18:54 -1.5 °C -11.0 °C 1026.0 hPa NE 21.2 km/h 26.7 km/h 51% 0.0 mm
18:59 -1.6 °C -11.0 °C 1026.0 hPa NE 15.8 km/h 21.2 km/h 52% 0.0 mm
19:04 -1.7 °C -11.0 °C 1026.0 hPa NE 17.7 km/h 22.7 km/h 52% 0.0 mm
19:09 -1.8 °C -11.0 °C 1026.0 hPa NNE 12.6 km/h 22.7 km/h 52% 0.0 mm
19:14 -1.9 °C -11.0 °C 1026.0 hPa NNE 15.1 km/h 22.4 km/h 52% 0.0 mm
19:19 -1.9 °C -11.0 °C 1026.0 hPa NE 16.6 km/h 22.4 km/h 52% 0.0 mm
19:24 -1.8 °C -11.0 °C 1026.0 hPa NE 14.8 km/h 22.4 km/h 52% 0.0 mm
19:29 -1.8 °C -11.0 °C 1026.0 hPa ENE 13.7 km/h 22.4 km/h 52% 0.0 mm
19:34 -1.7 °C -11.0 °C 1026.0 hPa ENE 13.7 km/h 14.8 km/h 51% 0.0 mm
19:39 -1.6 °C -11.0 °C 1026.0 hPa NE 19.8 km/h 19.8 km/h 51% 0.0 mm
19:44 -1.7 °C -11.0 °C 1024.9 hPa ENE 20.1 km/h 21.2 km/h 51% 0.0 mm
19:49 -1.8 °C -11.0 °C 1024.9 hPa ENE 23.0 km/h 23.0 km/h 51% 0.0 mm
19:54 -1.9 °C -11.0 °C 1024.9 hPa ENE 18.0 km/h 23.0 km/h 52% 0.0 mm
19:59 -1.9 °C -11.0 °C 1026.0 hPa NE 14.0 km/h 28.5 km/h 51% 0.0 mm
20:04 -2.0 °C -11.0 °C 1026.0 hPa NE 15.8 km/h 28.5 km/h 52% 0.0 mm
20:09 -2.1 °C -11.0 °C 1026.0 hPa NE 16.9 km/h 21.2 km/h 52% 0.0 mm
20:14 -2.1 °C -11.0 °C 1026.0 hPa NE 16.9 km/h 23.0 km/h 52% 0.0 mm
20:19 -2.1 °C -11.0 °C 1026.0 hPa ENE 16.6 km/h 23.0 km/h 52% 0.0 mm
20:24 -2.1 °C -11.0 °C 1026.0 hPa ENE 16.3 km/h 20.6 km/h 52% 0.0 mm
20:29 -2.2 °C -11.0 °C 1024.9 hPa NE 14.0 km/h 20.9 km/h 53% 0.0 mm
20:35 -2.3 °C -11.0 °C 1024.9 hPa ENE 13.7 km/h 20.9 km/h 53% 0.0 mm
20:40 -2.3 °C -11.0 °C 1024.9 hPa NNE 15.8 km/h 20.9 km/h 53% 0.0 mm
20:45 -2.4 °C -11.0 °C 1024.9 hPa NNE 12.2 km/h 20.1 km/h 53% 0.0 mm
20:50 -2.5 °C -11.0 °C 1024.9 hPa NE 16.3 km/h 20.6 km/h 53% 0.0 mm
20:55 -2.5 °C -11.0 °C 1024.9 hPa NNE 14.0 km/h 20.6 km/h 54% 0.0 mm
21:00 -2.5 °C -11.0 °C 1024.9 hPa NE 16.6 km/h 19.8 km/h 54% 0.0 mm
21:05 -2.6 °C -11.0 °C 1024.9 hPa NE 19.8 km/h 24.5 km/h 54% 0.0 mm
21:10 -2.6 °C -11.0 °C 1024.9 hPa NE 16.6 km/h 24.5 km/h 54% 0.0 mm
21:15 -2.7 °C -11.0 °C 1026.0 hPa NE 16.9 km/h 20.6 km/h 54% 0.0 mm
21:20 -2.8 °C -11.0 °C 1026.0 hPa NE 19.8 km/h 19.8 km/h 55% 0.0 mm
21:25 -2.8 °C -11.0 °C 1026.0 hPa NNE 13.7 km/h 20.9 km/h 55% 0.0 mm
21:30 -2.9 °C -11.0 °C 1026.0 hPa NE 14.3 km/h 14.3 km/h 55% 0.0 mm
21:35 -3.0 °C -11.0 °C 1026.0 hPa NNW 9.7 km/h 19.5 km/h 56% 0.0 mm
21:40 -3.1 °C -11.0 °C 1026.0 hPa NNE 12.2 km/h 19.5 km/h 57% 0.0 mm
21:45 -3.3 °C -11.0 °C 1024.9 hPa NE 8.7 km/h 14.0 km/h 58% 0.0 mm
21:50 -3.4 °C -11.0 °C 1024.9 hPa NE 13.7 km/h 15.1 km/h 59% 0.0 mm
21:55 -3.5 °C -11.0 °C 1024.9 hPa NE 13.7 km/h 17.2 km/h 60% 0.0 mm
22:00 -3.5 °C -11.0 °C 1026.0 hPa NNE 12.6 km/h 17.2 km/h 61% 0.0 mm
22:05 -3.5 °C -11.0 °C 1026.0 hPa NE 12.2 km/h 16.9 km/h 61% 0.0 mm
22:11 -3.4 °C -10.0 °C 1026.0 hPa NE 13.0 km/h 16.6 km/h 61% 0.0 mm
22:16 -3.4 °C -10.0 °C 1026.0 hPa NNE 13.7 km/h 17.2 km/h 61% 0.0 mm
22:21 -3.3 °C -10.0 °C 1026.0 hPa NE 12.2 km/h 17.2 km/h 60% 0.0 mm
22:26 -3.4 °C -10.0 °C 1026.0 hPa NE 12.2 km/h 16.6 km/h 60% 0.0 mm
22:31 -3.4 °C -10.0 °C 1024.9 hPa NE 15.8 km/h 16.6 km/h 60% 0.0 mm
22:36 -3.4 °C -10.0 °C 1024.9 hPa NE 16.6 km/h 17.2 km/h 60% 0.0 mm
22:41 -3.4 °C -10.0 °C 1024.9 hPa NE 10.5 km/h 17.2 km/h 60% 0.0 mm
22:46 -3.4 °C -10.0 °C 1024.9 hPa NNE 14.0 km/h 20.1 km/h 60% 0.0 mm
22:51 -3.4 °C -10.0 °C 1024.9 hPa NNE 12.6 km/h 20.1 km/h 60% 0.0 mm
22:56 -3.4 °C -10.0 °C 1024.9 hPa NNE 12.2 km/h 16.9 km/h 60% 0.0 mm
23:01 -3.5 °C -11.0 °C 1024.9 hPa ENE 12.2 km/h 16.9 km/h 60% 0.0 mm
23:06 -3.5 °C -11.0 °C 1024.9 hPa NE 13.0 km/h 16.9 km/h 60% 0.0 mm
23:11 -3.6 °C -11.0 °C 1024.9 hPa NE 13.0 km/h 16.6 km/h 60% 0.0 mm
23:17 -3.7 °C -11.0 °C 1024.9 hPa NNE 7.9 km/h 16.6 km/h 61% 0.0 mm
23:22 -3.9 °C -11.0 °C 1024.9 hPa NE 9.3 km/h 12.2 km/h 61% 0.0 mm
23:27 -4.0 °C -11.0 °C 1024.9 hPa NNE 10.1 km/h 12.6 km/h 63% 0.0 mm
23:32 -4.1 °C -11.0 °C 1024.9 hPa NE 11.9 km/h 13.0 km/h 63% 0.0 mm
23:36 -4.1 °C -10.0 °C 1024.9 hPa NE 12.2 km/h 13.7 km/h 64% 0.0 mm
23:42 -4.2 °C -10.0 °C 1024.9 hPa NNE 10.1 km/h 13.7 km/h 64% 0.0 mm
23:47 -4.3 °C -11.0 °C 1024.9 hPa North 10.1 km/h 11.9 km/h 64% 0.0 mm
23:52 -4.4 °C -10.0 °C 1024.9 hPa NE 9.3 km/h 11.6 km/h 65% 0.0 mm
23:57 -4.5 °C -11.0 °C 1024.9 hPa NNE 6.1 km/h 11.6 km/h 65% 0.0 mm
Données Historique de Météo Turbie

Mise a jour : 18/06/2018 01:39:12
Généré par Cumulus 1.9.4 (1099)